Location: Brahman Valley
(40.6513°N, 111.8855°W)
Time: 21:43:18
(UTC+00:00)

Vanguard 2 - Pass Details

Date: 16 May 2021
Orbit: 552 x 2937 km, 32.9° (Epoch: 14 June)

Event Time Altitude Azimuth Distance (km) Brightness Sun altitude
Rises 10:43:58 0° 212° (SSW) 3,617 - -14.2°
Reaches altitude 10° 10:46:36 10° 199° (SSW) 2,941 - -13.9°
Exits shadow 10:47:03 12° 196° (SSW) 2,846 9.9 -13.8°
Maximum altitude 10:52:41 27° 143° (SE) 2,489 10.1 -13.0°
Drops below altitude 10° 11:01:39 10° 92° (E) 4,455 12.2 -11.7°
Sets 11:06:43 0° 83° (E) 5,878 13.2 -10.9°
